Zurück zum Katalog

STARLINK-30221

AktivKommunikationVLEO
NORAD 57418·PAYLOAD·🇺🇸 United States

Gestartet Jul 20, 2023 von Vandenberg Space Force Base

Loading…

Nächste Überflüge (nächste 24 Stunden)

TLE

AktuellSource: CelesTrak SupGP

Epoche: Sep 14, 2026, 20:33 UTC

1 57418C 23102Q   26257.85673611  .00459220  00000+0  59230-2 0  2571
2 57418  42.9994 262.2134 0001778 277.4024 191.1064 15.57865947    13

Verfolge STARLINK-30221 in Echtzeit mit AllMySat

Download on the App Store